User: anonymous   Login
Location: *
(2.5500°S, 65.9667°W)
Time: 11:34:04
(UTC+00:00)
Language:

Cosmos 2173 Rocket - Orbit

View from above orbital plane
View from above orbital plane
View from above satellite
View from above satellite

Ground track
Ground track

The orbit data is extracted from the following two-line orbital elements,

1 21797U 91081B   22021.89240571  .00000010  00000-0 -55737-5 0  9992
2 21797  82.9521 254.6250 0039096  62.6193 308.1501 13.77538642515378
Epoch (UTC): 21 January 2022 21:25:03
Eccentricity: 0.0039096
inclination: 82.9521°
perigee height: 944 km
apogee height: 1001 km
right ascension of ascending node: 254.6250°
argument of perigee: 62.6193°
revolutions per day: 13.77538642
mean anomaly at epoch: 308.1501°
orbit number at epoch: 51537

The dashed part of the orbit path shows where the satellite is in the earth's shadow,  

DLR